Regional Weather Roundup
Issued by NWS Northern Indiana

Home | Current Version | Previous Version | Graphics & Text | Print | Product List | Glossary On
Versions: 1 2 3 4 5 6 7 8 9 10 11 12 13 14 15 16 17 18 19 20 21 22 23 24 25 26 27 28 29 30 31 32 33 34 35 36 37 38 39 40 41 42 43 44 45 46 47 48 49 50
000
ASUS43 KIWX 262310
RWRIWX

KIWX WEATHER ROUNDUP
NATIONAL WEATHER SERVICE NORTHERN INDIANA
600 PM EST FRI DEC 26 2014

NOTE: "FAIR" INDICATES FEW OR NO CLOUDS BELOW 12,000 FEET WITH NO
SIGNIFICANT WEATHER AND/OR OBSTRUCTIONS TO VISIBILITY.

* THESE STATIONS ARE NOT UNDER NWS QUALITY CONTROL. THEY ALSO MAY NOT
  REPORT WEATHER SUCH AS PRECIPITATION OR FOG.

INZ001>027-270000-
NORTHERN INDIANA

CITY           SKY/WX    TMP DP  RH WIND       PRES   REMARKS
GARY*          CLOUDY    52  37  58 S8        30.03S
VALPARAISO     CLOUDY    48  41  76 SW9       30.04S
MICHIGAN CITY* CLOUDY    48  36  61 S7        30.04S
LAPORTE*       CLOUDY    50  42  76 S8        30.04S
KNOX*          CLOUDY    48  38  67 SW10      30.05R
SOUTH BEND     CLOUDY    49  40  71 S8        30.06R
ELKHART*       MOCLDY    46  37  71 SW6       30.06R
GOSHEN         CLOUDY    47  40  76 S6        30.06R
MONTICELLO*    PTCLDY    46  40  81 S6        30.07R
LOGANSPORT*    PTCLDY    41  37  87 S7        30.09R
ROCHESTER*     PTCLDY    46  41  81 S8        30.08R
WARSAW*        PTCLDY    45  39  81 S3        30.07S
ANGOLA*        CLEAR     43  37  81 S6        30.07R
FORT WAYNE     MOCLDY    42  38  85 S8        30.10S
HUNTINGTON*    PTCLDY    45  40  81 S5        30.09S
PERU/GRISSOM   PTCLDY    45  45 100 S9        30.08S
MARION*        MOCLDY    44  39  82 S8        30.11R

$$
INZ028>050-270000-
CENTRAL INDIANA

CITY           SKY/WX    TMP DP  RH WIND       PRES   REMARKS
LAFAYETTE      MOCLDY    47  40  76 S9        30.08R
KOKOMO*        PTCLDY    46  39  76 SW10      30.09S
MUNCIE*        PTCLDY    47  39  74 S8        30.11S
INDIANAPOLIS   MOCLDY    45  39  79 S7        30.10S

$$
MIZ043>046-050>051-056>058-064>065-071>073-077>080-270000-
SOUTHWEST LOWER MICHIGAN

CITY           SKY/WX    TMP DP  RH WIND       PRES   REMARKS
BATTLE CREEK   PTCLDY    44  36  73 S8        30.05S
BENTON HARBOR  PTCLDY    45  39  79 S7        30.03S
COLDWATER*     PTCLDY    42  36  80 MISG      30.07R
HILLSDALE*     PTCLDY    42  38  86 S5        30.08R
HOLLAND        PTCLDY    44  36  73 SW7       30.04R
GRAND RAPIDS   MOCLDY    40  33  76 CALM      30.04R
KALAMAZOO      PTCLDY    43  36  76 S7        30.05S
STURGIS*       MOCLDY    43  39  87 S5        30.06R
THREE RIVERS*  FAIR      42  37  82 S6        30.06R

$$
OHZ001>008-015>018-024>025-270000-
NORTHWEST OHIO

CITY           SKY/WX    TMP DP  RH WIND       PRES   REMARKS
WAUSEON*       FAIR      43  39  87 S8        30.10S
DEFIANCE       MOCLDY    43  38  82 S3        30.11S
FINDLAY        PTCLDY    41  36  82 S8        30.12S
TOLEDO EXPRESS MOCLDY    43  38  82 S5        30.11R
TOLEDO METCALF MOCLDY    42  36  79 S6        30.12R
LIMA           PTCLDY    46  37  71 S10       30.12S

$$
AND FOR LAKE MICHIGAN COASTAL AND OPEN LAKE BUOY OBSERVATIONS

STATION/POSITION TEMP    WIND        PRES    VSBY  WAVE
                 AIR SEA DIR/SP/G                  HT/PER
                 (F)     (DEG/KT/KT) (MB)    (MI)  (FT/S)
CALUMET HARBOR    49     180/  4/  5 1015.1R
MICHIGAN CITY     49     160/  7/ 10   N/A
SAINT JOSEPH      47     140/  3/  7 1016.9S
MICHIGAN CITY CG     37                N/A       6   1

$$
&&



USA.gov is the U.S. government's official web portal to all federal, state and local government web resources and services.